Clinton, AR

12:54 PM CDT on September 20, 2017 (GMT -0500)
Clinton

Weather History for KCCA - June, 2014

Change the Weather History Date:

Sunday, June 8, 2014

  Actual Average (KBVX) Record (KBVX)
Temperature  
Mean Temperature 68 °F -  
Max Temperature 71 °F 87 °F 97 °F (1988)
Min Temperature 66 °F 62 °F 50 °F (1955)
Cooling Degree Days 4    
Growing Degree Days 18 (Base 50)    
Moisture  
Dew Point 66 °F    
Average Humidity 95    
Maximum Humidity 100    
Minimum Humidity 83    
Precipitation  
Precipitation 0.62 in - - ()
Sea Level Pressure  
Sea Level Pressure 29.97 in    
Wind  
Wind Speed 1 mph (East)    
Max Wind Speed 8 mph    
Max Gust Speed -    
Visibility 5 miles    
Events Fog , Rain , Thunderstorm    
Averages and records for this station are not official NWS values.
T = Trace of Precipitation, MM = Missing Value Source: NWS Daily Summary

Daily Weather History Graph

Daily Weather History Graph

Search for Another Location

Airport or City:

Trip Planner

Search our weather history database for the weather conditions in past years. The results will help you decide how hot, cold, wet, or windy it might be!

Date:

Astronomy

Jun. 08, 2014 Rise Set
Actual Time 5:53 AM CDT 8:24 PM CDT
Civil Twilight 5:24 AM CDT 8:53 PM CDT
Nautical Twilight 4:47 AM CDT 9:30 PM CDT
Astronomical Twilight 4:06 AM CDT 10:11 PM CDT
Moon 3:51 PM CDT (6/8) 2:37 AM CDT (6/8)
Length of Visible Light 15h 29m
Length of Day
14h 30m
Waxing Gibbous, 77% of the Moon is Illuminated
Jun 8
Waxing Gibbous
Jun 12
Full
Jun 19
Last Quarter
Jun 27
New
Jul 5
First Quarter

Hourly Weather History & Observations

Time (CDT) Temp. Dew Point Humidity Pressure Visibility Wind Dir Wind Speed Gust Speed Precip Events Conditions
12:15 AM 69.8 °F 69.8 °F 100% 29.93 in 5.0 mi Calm Calm - N/A   Clear
12:35 AM 68.0 °F 68.0 °F 100% 29.92 in 5.0 mi Calm Calm - N/A   Clear
12:55 AM 68.0 °F 68.0 °F 100% 29.93 in 3.0 mi Calm Calm - N/A   Partly Cloudy
1:15 AM 66.2 °F 66.2 °F 100% 29.92 in 1.2 mi Calm Calm - N/A   Mostly Cloudy
1:35 AM 66.2 °F 66.2 °F 100% 29.92 in 2.0 mi Calm Calm - N/A   Mostly Cloudy
1:55 AM 66.2 °F 66.2 °F 100% 29.93 in 0.5 mi Calm Calm - N/A Fog Fog
2:15 AM 66.2 °F 66.2 °F 100% 29.91 in 4.0 mi Calm Calm - N/A   Clear
2:35 AM 66.2 °F 66.2 °F 100% 29.92 in 1.2 mi Calm Calm - N/A   Clear
2:55 AM 66.2 °F 66.2 °F 100% 29.92 in 4.0 mi SSE 3.5 mph - N/A   Clear
3:15 AM 66.2 °F 66.2 °F 100% 29.92 in 5.0 mi Calm Calm - N/A   Clear
3:35 AM 66.2 °F 66.2 °F 100% 29.93 in 4.0 mi Calm Calm - N/A   Scattered Clouds
3:55 AM 66.2 °F 66.2 °F 100% 29.95 in 5.0 mi Calm Calm - N/A   Mostly Cloudy
4:15 AM 66.2 °F 66.2 °F 100% 29.94 in 5.0 mi Calm Calm - N/A   Partly Cloudy
4:35 AM 66.2 °F 66.2 °F 100% 29.94 in 5.0 mi Calm Calm - N/A   Partly Cloudy
4:55 AM 66.2 °F 66.2 °F 100% 29.94 in 7.0 mi Calm Calm - N/A   Scattered Clouds
5:15 AM 68.0 °F 68.0 °F 100% 29.94 in 8.0 mi Calm Calm - N/A   Mostly Cloudy
5:55 AM 68.0 °F 68.0 °F 100% 29.96 in 10.0 mi Calm Calm - N/A   Mostly Cloudy
6:15 AM 68.0 °F 66.2 °F 94% 29.97 in 10.0 mi NNW 3.5 mph - N/A Thunderstorm Mostly Cloudy
6:35 AM 69.8 °F 64.4 °F 83% 29.99 in 10.0 mi Calm Calm - N/A   Mostly Cloudy
6:55 AM 68.0 °F 66.2 °F 94% 30.01 in 8.0 mi Calm Calm - N/A   Overcast
7:15 AM 68.0 °F 66.2 °F 94% 30.03 in 6.0 mi Calm Calm - N/A Rain Light Rain
7:35 AM 66.2 °F 66.2 °F 100% 30.02 in 2.5 mi Calm Calm - 0.02 in Rain , Thunderstorm Light Rain
7:55 AM 66.2 °F 66.2 °F 100% 30.01 in 3.0 mi Calm Calm - 0.05 in Rain Light Rain
8:15 AM 66.2 °F 66.2 °F 100% 30.02 in 4.0 mi Calm Calm - 0.01 in Rain Light Rain
8:35 AM 66.2 °F 66.2 °F 100% 30.03 in 8.0 mi Calm Calm - 0.01 in   Partly Cloudy
8:55 AM 68.0 °F 66.2 °F 94% 30.03 in 10.0 mi ESE 3.5 mph - 0.01 in   Clear
9:15 AM 69.8 °F 66.2 °F 88% 30.02 in 9.0 mi East 3.5 mph - N/A   Clear
9:35 AM 69.8 °F 66.2 °F 88% 30.03 in 9.0 mi NE 3.5 mph - N/A   Clear
9:55 AM 69.8 °F 66.2 °F 88% 30.04 in 9.0 mi Calm Calm - N/A   Partly Cloudy
10:15 AM 69.8 °F 66.2 °F 88% 30.05 in 9.0 mi Calm Calm - N/A Rain Light Rain
10:35 AM 69.8 °F 66.2 °F 88% 30.07 in 5.0 mi Calm Calm - N/A   Scattered Clouds
10:55 AM 69.8 °F 66.2 °F 88% 30.06 in 5.0 mi Calm Calm - N/A Rain Light Rain
11:15 AM 68.0 °F 66.2 °F 94% 30.02 in 2.0 mi Calm Calm - 0.03 in Rain Light Rain
11:35 AM 69.8 °F 66.2 °F 88% 30.04 in 6.0 mi SSW 3.5 mph - 0.03 in   Scattered Clouds
11:55 AM 68.0 °F 66.2 °F 94% 30.04 in 6.0 mi NNW 3.5 mph - 0.03 in Rain Light Rain
12:15 PM 69.8 °F 66.2 °F 88% 30.04 in 3.0 mi Calm Calm - N/A Rain Light Rain
12:35 PM 69.8 °F 66.2 °F 88% 30.05 in 5.0 mi Calm Calm - 0.01 in   Mostly Cloudy
12:55 PM 69.8 °F 66.2 °F 88% 30.05 in 2.0 mi Calm Calm - 0.01 in Rain Light Rain
1:15 PM 68.0 °F 66.2 °F 94% 30.01 in 3.0 mi Calm Calm - N/A Rain Light Rain
1:35 PM 69.8 °F 66.2 °F 88% 30.00 in 4.0 mi Calm Calm - N/A Rain Light Rain
1:55 PM 69.8 °F 66.2 °F 88% 29.99 in 7.0 mi East 4.6 mph - 0.01 in   Partly Cloudy
2:15 PM 69.8 °F 66.2 °F 88% 29.98 in 5.0 mi East 3.5 mph - N/A   Partly Cloudy
2:35 PM 69.8 °F 66.2 °F 88% 29.97 in 7.0 mi East 3.5 mph - N/A   Clear
2:55 PM 69.8 °F 66.2 °F 88% 29.96 in 9.0 mi East 6.9 mph - N/A   Scattered Clouds
3:15 PM 69.8 °F 66.2 °F 88% 29.96 in 8.0 mi ESE 5.8 mph - N/A   Mostly Cloudy
3:35 PM 71.6 °F 66.2 °F 83% 29.94 in 8.0 mi East 8.1 mph - N/A   Scattered Clouds
3:55 PM 71.6 °F 66.2 °F 83% 29.93 in 10.0 mi East 8.1 mph - N/A   Scattered Clouds
4:15 PM 71.6 °F 66.2 °F 83% 29.91 in 9.0 mi East 6.9 mph - N/A   Scattered Clouds
4:35 PM 69.8 °F 66.2 °F 88% 29.93 in 5.0 mi East 4.6 mph - N/A Rain Light Rain
4:55 PM 69.8 °F 66.2 °F 88% 29.93 in 3.0 mi Calm Calm - 0.03 in Rain Light Rain
5:15 PM 69.8 °F 68.0 °F 94% 29.95 in 2.0 mi NW 3.5 mph - 0.07 in Rain Light Rain
5:35 PM 68.0 °F 66.2 °F 94% 29.94 in 3.0 mi Calm Calm - 0.11 in Rain Light Rain
5:55 PM 68.0 °F 68.0 °F 100% 29.95 in 4.0 mi Calm Calm - 0.13 in Rain Light Rain
6:15 PM 69.8 °F 68.0 °F 94% 29.93 in 5.0 mi Calm Calm - N/A   Overcast
6:35 PM 69.8 °F 68.0 °F 94% 29.92 in 5.0 mi Calm Calm - N/A   Overcast
6:55 PM 68.0 °F 68.0 °F 100% 29.92 in 4.0 mi Calm Calm - 0.01 in Rain Rain
7:15 PM 68.0 °F 68.0 °F 100% 29.91 in 3.0 mi Calm Calm - N/A Rain Light Rain
7:35 PM 68.0 °F 66.2 °F 94% 29.92 in 5.0 mi West 3.5 mph - 0.01 in   Overcast
7:55 PM 68.0 °F 68.0 °F 100% 29.92 in 1.5 mi WNW 5.8 mph - 0.24 in Rain , Thunderstorm Light Rain
8:15 PM 68.0 °F 68.0 °F 100% 29.93 in 3.0 mi Calm Calm - N/A Rain , Thunderstorm Light Rain
8:35 PM 68.0 °F 66.2 °F 94% 29.93 in 3.0 mi Calm Calm - 0.03 in Rain Light Rain
8:55 PM 66.2 °F 66.2 °F 100% 29.93 in 1.8 mi Calm Calm - 0.10 in Rain Rain
9:15 PM 66.2 °F 66.2 °F 100% 29.94 in 5.0 mi Calm Calm - N/A   Overcast
9:35 PM 66.2 °F 66.2 °F 100% 29.93 in 8.0 mi Calm Calm - N/A   Overcast
9:55 PM 66.2 °F 66.2 °F 100% 29.94 in 8.0 mi ENE 3.5 mph - N/A   Overcast
10:15 PM 66.2 °F 66.2 °F 100% 29.94 in 5.0 mi Calm Calm - N/A   Mostly Cloudy
10:35 PM 66.2 °F 66.2 °F 100% 29.94 in 5.0 mi Calm Calm - N/A Rain Light Rain
10:55 PM 66.2 °F 66.2 °F 100% 29.94 in 6.0 mi Calm Calm - N/A   Overcast
11:15 PM 66.2 °F 64.4 °F 94% 29.93 in 9.0 mi Calm Calm - N/A   Overcast
11:35 PM 66.2 °F 64.4 °F 94% 29.93 in 8.0 mi Calm Calm - N/A Rain Light Rain
11:55 PM 66.2 °F 64.4 °F 94% 29.93 in 4.0 mi Calm Calm - N/A   Overcast